TIANLIAN 2-01

Last updated on Wed Sep 23 2026 00:03:34 GMT+0000 (Coordinated Universal Time)

1 44076U 19017A 26265.67153171 -.00000109 00000+0 00000+0 0 9990 2 44076 0.7838 82.4240 0003349 127.4613 110.4304 1.00272175 27627
UTC large
Height (km)
Speed (km/s)
/
Latitude / Longitude
Inclination (degrees)
Orbital Period (minutes)
Azimuth
Elevation
Range (km)
Doppler Factor

Next 0 passes for location: London (51.5072 / 0.1276)

No passes found over London.
TIANLIAN 2-01